Notices

What's New in latest Release from April 7th, 2021:

- Updated Glossary, including Speed of Maximum Gust, and Total Hourly Precipitation

- Updated national and regional climate services offices contacts and prices information

- Addition of station inventory lists for 1981-2010, 1971-2000, and 1961-1990 Normals.

If you haven't already, please take our survey and provide feedback about our website: https://eccc.sondage-survey.ca/f/LanguageSelection.aspx?s=442ca660-fcf1-47c0-95a9-59707d6fd709

Hourly Data Report for October 31, 2019

SHEARWATER RCS
NOVA SCOTIA
Current Station Operator: ECCC - MSC

44°37'47.000" N
63°30'48.000" W
24.00 m
8205092
71264
AAW

Download Data

Hourly Data (October 2019)
Hourly Data Report for October 31, 2019
TIME
LST
Temp Definition
°C
Dew Point Definition
°C
Rel Hum Definition
%
Precip. Amount Definition
mm

Wind Dir Definition
10's deg

Wind Spd Definition
km/h
Visibility Definition
km
Stn Press Definition
kPa
Hmdx Definition


Wind Chill Definition


Weather Definition


00:00 10.9 10.1 95 0.0 27 5   102.27     LegendNANA
01:00 11.5 10.4 93 0.0 26 6   102.24     LegendNANA
02:00 11.6 10.2 91 0.0 27 5   102.23     LegendNANA
03:00 11.5 10.0 91 0.0 26 5   102.21     LegendNANA
04:00 11.1 9.9 93 0.0 22 6   102.21     LegendNANA
05:00 11.1 10.1 94 0.0 18 6   102.19     LegendNANA
06:00 11.0 10.2 94 0.0 15 7   102.13     LegendNANA
07:00 11.2 10.3 95 0.0 16 12   102.11     LegendNANA
08:00 11.3 10.5 95 0.0 17 13   102.12     LegendNANA
09:00 11.5 10.4 93 0.2 17 19   102.07     LegendNANA
10:00 11.3 10.5 95 1.0 16 20   102.02     LegendNANA
11:00 11.9 11.2 95 0.9 17 21   101.91     LegendNANA
12:00 12.6 11.9 95 0.3 18 24   101.81     LegendNANA
13:00 13.6 12.5 93 0.0 18 24   101.70     LegendNANA
14:00 14.8 13.3 91 0.0 20 24   101.61     LegendNANA
15:00 14.7 13.1 90 0.0 20 28   101.56     LegendNANA
16:00 15.4 13.9 91 0.0 20 25   101.49     LegendNANA
17:00 15.1 13.8 92 0.3 20 29   101.44     LegendNANA
18:00 15.3 13.9 92 0.0 20 30   101.41     LegendNANA
19:00 15.5 13.8 89 0.0 20 32   101.36     LegendNANA
20:00 15.6 13.6 88 0.0 20 31   101.31     LegendNANA
21:00 15.3 13.5 89 0.0 20 30   101.25     LegendNANA
22:00 15.4 13.8 90 0.0 20 33   101.17     LegendNANA
23:00 15.8 14.0 89 0.0 20 36   101.08     LegendNANA

Notes on Data Quality.

Legend

  • E = Estimated
  • M = Missing
  • NA = Not Available*
  • [empty] = Indicates an unobserved value
Date modified: